Location: Riverside Cemetery
(38.3047°N, 99.7773°W)
Time: 18:35:37
(UTC+00:00)

Cosmos 1666 - Pass Details

Date: 19 September 2020
Orbit: 496 x 521 km, 82.5° (Epoch: 22 October)

Event Time Altitude Azimuth Distance (km) Brightness Sun altitude
Rises 10:57:47 0° 355° (N) 2,640 6.5 -17.6°
Reaches altitude 10° 10:59:57 10° 359° (N) 1,744 5.5 -17.2°
Maximum altitude 11:03:45 66° 82° (E) 562 3.0 -16.5°
Drops below altitude 10° 11:07:29 10° 165° (SSE) 1,715 5.3 -15.8°
Sets 11:09:35 0° 168° (SSE) 2,590 6.2 -15.4°
